EW8041 Weather Reports


Display with metric or nautical units.
time (UTC)temp
F
wind
direction
speed
MPH
gust
MPH
rain 1hr
in
rain 24hr
in
rain mn
in
humidity
%
barometer
mb
20260902023517 81 0.0 0.0 0.00 0.00 0.00 75 1017.9
20260902022533 81 0.0 0.0 0.00 0.00 0.00 75 1017.9
20260902021528 82 0.0 0.0 0.00 0.00 0.00 74 1017.9
20260902020543 82 126 1.0 1.0 0.00 0.00 0.00 74 1017.8
20260902015519 82 126 1.0 1.0 0.00 0.00 0.00 73 1017.7
20260902014555 83 0.0 0.0 0.00 0.00 0.00 72 1017.7
20260902013530 83 0.0 0.0 0.00 0.00 0.00 71 1017.5
20260902012526 84 126 0.0 1.0 0.00 0.00 0.00 70 1017.3
20260902011603 84 126 0.0 1.0 0.00 0.00 0.00 69 1017.3
20260902010518 85 126 0.0 1.0 0.00 0.00 0.00 68 1017.1
20260902005534 86 126 0.0 1.0 0.00 0.00 0.00 67 1017.2
20260902004530 86 126 0.0 1.0 0.00 0.00 0.00 66 1017.3
20260902003526 87 158 1.0 1.0 0.00 0.00 0.00 65 1017.3
20260902002542 88 158 1.0 1.0 0.00 0.00 0.00 63 1017.2
20260902001518 89 158 1.0 2.0 0.00 0.00 0.00 62 1017.1
20260902000533 90 158 0.0 1.0 0.00 0.00 0.00 61 1017.3
20260901235530 90 149 0.0 2.0 0.00 0.00 0.00 61 1017.3
20260901234645 91 187 1.0 2.0 0.00 0.00 0.00 60 1017.3
20260901233520 92 188 0.0 2.0 0.00 0.00 0.00 59 1017.2
20260901232516 93 189 0.0 1.0 0.00 0.00 0.00 58 1017.3
20260901231532 93 189 0.0 2.0 0.00 0.00 0.00 57 1017.3
20260901230527 94 189 0.0 1.0 0.00 0.00 0.00 56 1017.3
20260901225523 94 189 0.0 1.0 0.00 0.00 0.00 56 1017.3
20260901224519 94 54 1.0 2.0 0.00 0.00 0.00 56 1017.2
20260901223535 95 54 0.0 1.0 0.00 0.00 0.00 55 1017.1
20260901222531 95 54 1.0 2.0 0.00 0.00 0.00 55 1017.1
20260901221547 96 54 1.0 3.0 0.00 0.00 0.00 55 1017.1
20260901220523 96 54 1.0 2.0 0.00 0.00 0.00 54 1017.0
20260901215519 96 54 0.0 2.0 0.00 0.00 0.00 54 1017.1
20260901214535 96 54 1.0 3.0 0.00 0.00 0.00 54 1017.1
20260901213530 97 53 1.0 2.0 0.00 0.00 0.00 54 1017.0
20260901212527 96 49 1.0 2.0 0.00 0.00 0.00 54 1017.1
20260901211603 96 45 1.0 3.0 0.00 0.00 0.00 56 1017.2
20260901210519 96 47 1.0 2.0 0.00 0.00 0.00 55 1017.3
20260901205535 96 51 1.0 3.0 0.00 0.00 0.00 56 1017.5
20260901204531 95 54 2.0 4.0 0.00 0.00 0.00 56 1017.5
20260901203527 96 50 0.0 1.0 0.00 0.00 0.00 56 1017.7
20260901202543 96 50 1.0 3.0 0.00 0.00 0.00 59 1017.8
20260901201519 94 50 1.0 2.0 0.00 0.00 0.00 60 1017.8
20260901200535 93 50 1.0 2.0 0.00 0.00 0.00 60 1017.9
20260901195531 94 50 1.0 3.0 0.00 0.00 0.00 59 1018.1
20260901194547 94 51 1.0 4.0 0.00 0.00 0.00 59 1018.1
20260901193523 95 51 1.0 3.0 0.00 0.00 0.00 58 1018.3
20260901192519 97 60 1.0 4.0 0.00 0.00 0.00 58 1018.3
20260901191535 95 185 1.0 3.0 0.00 0.00 0.00 59 1018.3
20260901190531 95 55 1.0 2.0 0.00 0.00 0.00 59 1018.6
20260901185527 95 56 1.0 4.0 0.00 0.00 0.00 60 1018.6
20260901184523 94 56 1.0 2.0 0.00 0.00 0.00 61 1018.7
20260901183539 92 55 1.0 2.0 0.00 0.00 0.00 62 1018.9
20260901182535 92 56 1.0 2.0 0.00 0.00 0.00 64 1019.0
20260901181531 91 55 1.0 2.0 0.00 0.00 0.00 64 1019.0
20260901180527 91 55 1.0 2.0 0.00 0.00 0.00 63 1019.2
20260901175523 92 55 0.0 2.0 0.00 0.00 0.00 62 1019.3
20260901174518 93 65 1.0 3.0 0.00 0.00 0.00 63 1019.4
20260901173535 94 82 1.0 3.0 0.00 0.00 0.00 63 1019.5
20260901172531 95 123 1.0 3.0 0.00 0.00 0.00 63 1019.6
20260901171527 94 199 1.0 3.0 0.00 0.00 0.00 64 1019.8
20260901170522 94 200 1.0 3.0 0.00 0.00 0.00 65 1019.8
20260901165539 93 200 1.0 2.0 0.00 0.00 0.00 66 1019.9
20260901164535 93 200 1.0 3.0 0.00 0.00 0.00 69 1020.0
20260901163611 92 200 1.0 3.0 0.00 0.00 0.00 70 1020.1
20260901162526 91 200 1.0 3.0 0.00 0.00 0.00 71 1020.2
20260901161603 92 200 1.0 2.0 0.00 0.00 0.00 72 1020.3
20260901160518 91 200 1.0 3.0 0.00 0.00 0.00 72 1020.4
20260901155535 91 201 1.0 2.0 0.00 0.00 0.00 72 1020.3
20260901154530 91 201 1.0 3.0 0.00 0.00 0.00 73 1020.4
20260901153526 90 148 1.0 3.0 0.00 0.00 0.00 77 1020.5
20260901152523 90 190 0.0 1.0 0.00 0.00 0.00 80 1020.5
20260901151518 90 190 1.0 2.0 0.00 0.00 0.00 80 1020.4
20260901150535 89 59 1.0 2.0 0.00 0.00 0.00 80 1020.5
20260901145531 88 58 1.0 3.0 0.00 0.00 0.00 84 1020.4
20260901144527 87 58 0.0 1.0 0.00 0.00 0.00 86 1020.4
20260901143523 87 58 0.0 1.0 0.00 0.00 0.00 88 1020.5
20260901142518 86 58 1.0 2.0 0.00 0.00 0.00 89 1020.4
20260901141534 85 58 0.0 2.0 0.00 0.00 0.00 92 1020.5
20260901140530 84 58 0.0 1.0 0.00 0.00 0.00 93 1020.3
20260901135526 82 0.0 0.0 0.00 0.00 0.00 94 1020.3
20260901134522 81 0.0 0.0 0.00 0.00 0.00 95 1020.2
20260901133519 79 58 0.0 1.0 0.00 0.00 0.00 95 1020.2
20260901132554 78 58 0.0 2.0 0.00 0.00 0.00 96 1020.3
20260901131530 76 58 0.0 1.0 0.00 0.00 0.00 96 1020.3
20260901130526 75 58 0.0 1.0 0.00 0.00 0.00 96 1020.1
20260901125522 74 0.0 0.0 0.00 0.00 0.00 96 1020.2
20260901124517 74 0.0 0.0 0.00 0.00 0.00 96 1020.2
20260901123534 73 0.0 0.0 0.00 0.00 0.00 96 1020.1
20260901122530 73 0.0 0.0 0.00 0.00 0.00 96 1020.0
20260901121526 72 0.0 0.0 0.00 0.00 0.00 95 1019.9
20260901120602 72 0.0 0.0 0.00 0.00 0.00 95 1019.7
20260901115517 72 0.0 0.0 0.00 0.00 0.00 95 1019.8
20260901114533 72 0.0 0.0 0.00 0.00 0.00 95 1019.7
20260901113529 72 0.0 0.0 0.00 0.00 0.00 95 1019.6
20260901112525 72 0.0 0.0 0.00 0.00 0.00 95 1019.4
20260901111522 72 58 0.0 1.0 0.00 0.00 0.00 94 1019.4
20260901110517 72 0.0 0.0 0.00 0.00 0.00 94 1019.3
20260901105533 72 0.0 0.0 0.00 0.00 0.00 94 1019.2
20260901104529 72 0.0 0.0 0.00 0.00 0.00 94 1019.2
20260901103525 72 0.0 0.0 0.00 0.00 0.00 94 1019.1
20260901102541 72 0.0 0.0 0.00 0.00 0.00 94 1019.0
20260901101517 72 0.0 0.0 0.00 0.00 0.00 93 1019.2
20260901100533 72 58 0.0 1.0 0.00 0.00 0.00 93 1018.9
20260901095549 72 58 0.0 1.0 0.00 0.00 0.00 93 1018.8
20260901094525 72 0.0 0.0 0.00 0.00 0.00 93 1018.7
20260901093520 73 0.0 0.0 0.00 0.00 0.00 93 1018.8
20260901092517 73 0.0 0.0 0.00 0.00 0.00 93 1018.7
20260901091533 73 0.0 0.0 0.00 0.00 0.00 92 1018.6
20260901090529 73 0.0 0.0 0.00 0.00 0.00 92 1018.5
20260901085545 73 0.0 0.0 0.00 0.00 0.00 92 1018.5
20260901084541 73 0.0 0.0 0.00 0.00 0.00 92 1018.5
20260901083517 73 0.0 0.0 0.00 0.00 0.00 91 1018.5
20260901082533 73 0.0 0.0 0.00 0.00 0.00 91 1018.3
20260901081529 73 0.0 0.0 0.00 0.00 0.00 91 1018.5
20260901080525 73 0.0 0.0 0.00 0.00 0.00 91 1018.5
20260901075521 74 0.0 0.0 0.00 0.00 0.00 91 1018.4
20260901074517 74 58 0.0 1.0 0.00 0.00 0.00 90 1018.3
20260901073533 74 0.0 0.0 0.00 0.00 0.00 90 1018.4
20260901072529 74 0.0 0.0 0.00 0.00 0.00 90 1018.4
20260901071525 74 0.0 0.0 0.00 0.00 0.00 90 1018.4
20260901070521 74 0.0 0.0 0.00 0.00 0.00 89 1018.3
20260901065517 74 58 0.0 1.0 0.00 0.00 0.00 89 1018.4
20260901064533 74 58 0.0 1.0 0.00 0.00 0.00 89 1018.6
20260901063529 74 0.0 0.0 0.00 0.00 0.00 88 1018.5
20260901062605 75 58 0.0 1.0 0.00 0.00 0.00 88 1018.5
20260901061521 75 0.0 0.0 0.00 0.00 0.00 88 1018.6
20260901060517 75 0.0 0.0 0.00 0.00 0.00 87 1018.6
20260901055533 75 0.0 0.0 0.00 0.00 0.00 87 1018.6
20260901054529 75 58 0.0 1.0 0.00 0.00 0.00 86 1018.6
20260901053525 76 58 0.0 1.0 0.00 0.00 0.00 86 1018.7
20260901052520 76 0.0 0.0 0.00 0.00 0.00 86 1018.6
20260901051517 76 58 0.0 1.0 0.00 0.00 0.00 85 1018.7
20260901050533 76 0.0 0.0 0.00 0.00 0.00 85 1018.7
20260901045529 76 58 1.0 2.0 0.00 0.00 0.00 85 1018.5
20260901044525 76 0.0 0.0 0.00 0.00 0.00 84 1018.6
20260901043520 77 58 0.0 1.0 0.00 0.00 0.00 84 1018.6
20260901042516 77 0.0 0.0 0.00 0.00 0.00 84 1018.6
20260901041533 77 0.0 0.0 0.00 0.00 0.00 83 1018.5
20260901040528 77 58 0.0 1.0 0.00 0.00 0.00 83 1018.6
20260901035524 78 58 0.0 1.0 0.00 0.00 0.00 82 1018.6
20260901034520 78 0.0 0.0 0.00 0.00 0.00 82 1018.6
20260901033515 78 58 0.0 1.0 0.00 0.00 0.00 81 1018.6
20260901032531 78 0.0 0.0 0.00 0.00 0.00 81 1018.7
20260901031527 79 58 0.0 1.0 0.00 0.00 0.00 81 1018.6
20260901030542 79 0.0 0.0 0.00 0.00 0.00 80 1018.6
20260901025518 79 58 0.0 1.0 0.00 0.00 0.00 80 1018.8
20260901024534 79 0.0 0.0 0.00 0.00 0.00 79 1018.7